Waarnemingen

Advertentie
Mijn weer
Hoorn-A, Nederland (6212): temperatuur & dauwpunt: 20.04.2017 06:00:00 - 26.04.2017 06:00:00 (CEST)Hoorn-A, Nederland (6212): windsnelheid & windstoten: 20.04.2017 06:00:00 - 26.04.2017 06:00:00 (CEST)Hoorn-A, Nederland (6212): windrichting: 20.04.2017 06:00:00 - 26.04.2017 06:00:00 (CEST)Hoorn-A, Nederland (6212): luchtdruk: 20.04.2017 06:00:00 - 26.04.2017 06:00:00 (CEST)Hoorn-A, Nederland (6212): zicht: 20.04.2017 06:00:00 - 26.04.2017 06:00:00 (CEST)
Datum & Tijd tt [°C] td [°C] ff [km/u] ff [kn] fx [km/u] fx [kn] dd ppp [hPa] vv [km]
26.04.2017 06:00:00 7,0 0,0 24 13 - - NW 1010,8 10
26.04.2017 05:00:00 6,1 0,5 26 14 40 21 NNW 1010,8 10
26.04.2017 04:00:00 6,9 0,5 24 13 29 16 NNW 1010,7 10
26.04.2017 03:00:00 7,1 -0,4 28 15 29 16 NNW 1010,5 10
26.04.2017 02:00:00 6,9 -0,8 21 11 29 16 NNW 1010,6 10
26.04.2017 01:00:00 6,9 1,1 28 15 29 16 N 1010,3 10
26.04.2017 00:00:00 7,0 0,6 31 17 32 18 NNW 1010,0 10
25.04.2017 23:00:00 6,5 1,9 34 18 36 19 NNW 1009,9 10
25.04.2017 22:00:00 6,4 1,8 22 12 22 12 NNW 1009,6 10
25.04.2017 21:00:00 5,9 1,8 26 14 36 19 NW 1009,2 10
25.04.2017 20:00:00 6,4 2,6 34 18 40 21 W 1009,1 10
25.04.2017 19:00:00 6,6 2,1 44 24 43 23 WNW 1009,0 10
25.04.2017 18:00:00 6,2 2,8 35 19 47 25 W 1009,2 9
25.04.2017 17:00:00 6,6 1,6 31 17 47 25 W 1009,1 10
25.04.2017 16:00:00 5,9 2,6 31 17 43 23 W 1009,3 10
25.04.2017 15:00:00 4,4 1,5 54 29 54 29 WNW 1009,2 10
25.04.2017 14:00:00 6,6 0,7 39 21 50 27 WNW 1009,1 10
25.04.2017 13:00:00 6,2 -3,9 35 19 47 25 WNW 1008,8 10
25.04.2017 12:00:00 6,0 -0,2 42 23 50 27 NW 1008,6 -
25.04.2017 11:00:00 5,5 1,4 44 24 54 29 NNW 1008,4 -
25.04.2017 10:00:00 4,6 2,0 46 25 61 33 NNW 1007,3 -
25.04.2017 09:00:00 5,5 0,6 57 31 61 33 NNW 1006,0 -
25.04.2017 08:00:00 5,6 1,4 54 29 58 31 NNW 1004,9 -
25.04.2017 07:00:00 5,4 2,2 54 29 54 29 WNW 1003,0 10
25.04.2017 06:00:00 5,6 1,5 61 33 61 33 WNW 1003,7 10
25.04.2017 05:00:00 6,1 1,9 55 30 65 35 W 1004,2 10
25.04.2017 04:00:00 6,3 -0,1 52 28 54 29 W 1004,6 10
25.04.2017 03:00:00 6,7 0,6 48 26 50 27 WNW 1005,0 10
25.04.2017 02:00:00 6,9 1,9 31 17 47 25 NW 1005,8 48
25.04.2017 01:00:00 5,5 3,2 26 14 43 23 NW 1006,7 -
25.04.2017 00:00:00 7,6 4,0 24 13 25 14 - 1006,6 -
24.04.2017 23:00:00 7,4 3,8 16 9 22 12 WNW 1007,7 -
24.04.2017 22:00:00 7,4 4,2 18 10 22 12 WNW 1008,1 -
24.04.2017 21:00:00 7,6 4,6 21 11 22 12 WNW 1008,5 10
24.04.2017 20:00:00 7,5 5,1 9 5 18 10 WNW 1009,0 10
24.04.2017 19:00:00 7,1 5,3 18 10 22 12 NW 1009,7 8
24.04.2017 18:00:00 8,1 6,2 21 11 22 12 NW 1009,8 10
24.04.2017 17:00:00 8,5 6,3 18 10 29 16 NNW 1010,5 -
24.04.2017 16:00:00 9,9 7,9 29 16 36 19 - 1010,9 -
24.04.2017 15:00:00 10,0 7,3 34 18 36 19 W 1011,7 -
24.04.2017 14:00:00 9,9 7,6 37 20 40 21 - 1012,3 -
24.04.2017 13:00:00 9,7 7,4 37 20 40 21 - 1012,7 -
24.04.2017 12:00:00 9,5 7,4 37 20 40 21 - 1013,2 -
24.04.2017 11:00:00 9,8 7,1 42 23 43 23 - 1013,4 -
24.04.2017 10:00:00 9,5 6,8 39 21 40 21 - 1013,3 -
24.04.2017 09:00:00 9,5 7,0 41 22 40 21 - 1013,7 -
24.04.2017 08:00:00 9,3 6,4 42 23 40 21 - 1014,1 -
24.04.2017 07:00:00 9,1 5,6 39 21 47 25 - 1014,5 -
24.04.2017 06:00:00 9,6 7,8 48 26 50 27 - 1014,9 10
24.04.2017 05:00:00 9,7 6,8 54 29 50 27 - 1015,7 -
24.04.2017 04:00:00 9,6 5,7 55 30 54 29 - 1016,8 10
24.04.2017 03:00:00 9,5 4,6 52 28 50 27 - 1017,9 10
24.04.2017 02:00:00 9,5 3,4 48 26 47 25 - 1019,2 10
24.04.2017 01:00:00 9,4 3,2 42 23 43 23 - 1020,3 10
24.04.2017 00:00:00 9,1 3,8 41 22 40 21 - 1021,3 10
23.04.2017 23:00:00 8,7 3,1 37 20 36 19 - 1022,2 10
23.04.2017 22:00:00 8,6 2,7 31 17 29 16 - 1022,9 10
23.04.2017 21:00:00 8,4 3,3 29 16 29 16 - 1023,3 10
23.04.2017 20:00:00 8,3 3,5 24 13 25 14 - 1023,8 10
23.04.2017 19:00:00 8,5 2,8 21 11 22 12 - 1024,4 10
23.04.2017 18:00:00 8,5 2,1 15 8 18 10 - 1024,7 10
23.04.2017 17:00:00 8,7 2,0 18 10 22 12 W 1025,3 10
23.04.2017 16:00:00 8,4 2,1 22 12 25 14 WNW 1025,8 10
23.04.2017 15:00:00 8,1 2,8 26 14 29 16 WNW 1026,0 10
23.04.2017 14:00:00 7,9 2,7 29 16 32 18 NW 1026,4 10
23.04.2017 13:00:00 7,4 3,2 29 16 32 18 WNW 1026,6 10
23.04.2017 12:00:00 7,3 3,0 28 15 29 16 NW 1026,7 -
23.04.2017 11:00:00 6,6 2,8 41 22 47 25 NW 1026,6 -
23.04.2017 10:00:00 7,3 2,9 35 19 43 23 NW 1026,6 -
23.04.2017 09:00:00 7,1 3,0 37 20 40 21 NW 1026,5 -
23.04.2017 08:00:00 5,5 3,2 41 22 43 23 NW 1026,3 10
23.04.2017 07:00:00 7,4 1,3 42 23 43 23 NW 1026,1 10
23.04.2017 06:00:00 7,3 0,9 35 19 36 19 NW 1025,9 10
23.04.2017 05:00:00 7,1 0,4 31 17 32 18 NW 1025,9 10
23.04.2017 04:00:00 7,0 -0,3 29 16 32 18 NNW 1026,0 10
23.04.2017 03:00:00 6,9 0,7 35 19 36 19 NNW 1025,9 10
23.04.2017 02:00:00 6,7 -0,4 39 21 43 23 NNW 1026,3 10
23.04.2017 01:00:00 6,3 1,2 42 23 43 23 NNW 1026,1 -
23.04.2017 00:00:00 6,9 0,6 44 24 47 25 NW 1026,2 10
22.04.2017 23:00:00 7,3 1,4 44 24 47 25 NW 1026,2 10
22.04.2017 22:00:00 7,4 2,1 42 23 43 23 NNW 1026,2 10
22.04.2017 21:00:00 6,2 1,2 44 24 58 31 NW 1026,3 10
22.04.2017 20:00:00 7,4 1,0 41 22 61 33 NW 1026,3 10
22.04.2017 19:00:00 7,1 1,3 44 24 47 25 NW 1026,1 10
22.04.2017 18:00:00 7,0 2,5 41 22 54 29 NW 1026,4 10
22.04.2017 17:00:00 7,4 0,6 42 23 43 23 NW 1026,7 10
22.04.2017 16:00:00 7,5 1,0 36 19 43 23 NW 1027,0 27
22.04.2017 15:00:00 7,7 0,2 44 24 47 25 NW 1027,3 10
22.04.2017 14:00:00 7,3 2,5 31 17 40 21 NNW 1027,3 10
22.04.2017 13:00:00 7,9 2,1 42 23 47 25 NW 1027,5 10
22.04.2017 12:00:00 7,7 3,3 37 20 40 21 NW 1027,4 10
22.04.2017 11:00:00 7,1 2,3 44 24 50 27 NNW 1027,4 10
22.04.2017 10:00:00 7,5 3,2 31 17 43 23 NNW 1027,2 10
22.04.2017 09:00:00 8,1 1,4 37 20 36 19 NW 1027,0 10
22.04.2017 08:00:00 8,0 1,4 37 20 40 21 NNW 1026,7 10
22.04.2017 07:00:00 8,0 1,6 37 20 36 19 NNW 1026,5 10
22.04.2017 06:00:00 8,3 2,7 39 21 40 21 NNW 1026,2 10
22.04.2017 05:00:00 8,3 2,0 41 22 40 21 NNW 1026,4 10
22.04.2017 04:00:00 8,5 4,1 35 19 36 19 NNW 1026,3 -
22.04.2017 03:00:00 8,5 4,6 26 14 29 16 NW 1026,4 -
22.04.2017 02:00:00 8,5 5,3 26 14 25 14 NNW 1026,6 10
22.04.2017 01:00:00 8,3 5,3 28 15 29 16 NNW 1026,8 10
22.04.2017 00:00:00 8,0 5,2 28 15 32 18 N 1026,7 10
21.04.2017 23:00:00 8,7 7,1 29 16 36 19 N 1026,5 10
21.04.2017 22:00:00 9,6 8,7 31 17 36 19 NW 1026,5 8
21.04.2017 21:00:00 10,5 8,2 34 18 43 23 WNW 1026,1 10
21.04.2017 20:00:00 10,5 8,1 42 23 43 23 W 1026,1 18
21.04.2017 19:00:00 10,5 7,9 42 23 40 21 W 1026,2 -
21.04.2017 18:00:00 10,5 7,8 42 23 43 23 W 1026,6 -
21.04.2017 17:00:00 10,4 7,9 42 23 40 21 W 1026,9 -
21.04.2017 16:00:00 10,3 7,9 41 22 43 23 W 1027,5 -
21.04.2017 15:00:00 10,3 7,8 41 22 40 21 - 1027,9 -
21.04.2017 14:00:00 10,1 7,9 37 20 40 21 W 1028,3 -
21.04.2017 13:00:00 10,1 8,1 34 18 32 18 W 1028,6 -
21.04.2017 12:00:00 9,9 8,3 34 18 32 18 W 1029,0 -
21.04.2017 11:00:00 10,0 8,4 31 17 32 18 W 1029,2 -
21.04.2017 10:00:00 9,9 8,4 29 16 25 14 WNW 1028,9 10
21.04.2017 09:00:00 9,8 8,5 29 16 29 16 WNW 1028,7 10
21.04.2017 08:00:00 9,9 8,7 28 15 29 16 WNW 1028,7 10
21.04.2017 07:00:00 9,9 8,9 26 14 29 16 W 1028,7 7
21.04.2017 06:00:00 10,1 8,9 28 15 29 16 W 1028,8 6
21.04.2017 05:00:00 10,1 9,1 26 14 29 16 - 1029,2 5
21.04.2017 04:00:00 10,0 9,1 28 15 29 16 - 1029,9 5
21.04.2017 03:00:00 9,7 8,5 26 14 25 14 - 1030,4 7
21.04.2017 02:00:00 9,7 8,4 28 15 25 14 - 1031,0 8
21.04.2017 01:00:00 9,7 8,2 28 15 25 14 - 1031,5 9
21.04.2017 00:00:00 9,6 7,9 29 16 29 16 - 1031,9 10
20.04.2017 23:00:00 9,6 7,6 26 14 25 14 - 1032,2 10
20.04.2017 22:00:00 9,5 7,3 24 13 25 14 - 1032,5 -
20.04.2017 21:00:00 9,4 6,8 28 15 29 16 - 1032,6 10
20.04.2017 20:00:00 9,3 6,1 29 16 32 18 - 1032,8 10
20.04.2017 19:00:00 9,2 5,5 34 18 36 19 - 1033,1 10
20.04.2017 18:00:00 9,1 4,5 37 20 36 19 - 1033,4 10
20.04.2017 17:00:00 8,9 3,8 41 22 40 21 - 1033,7 10
20.04.2017 16:00:00 8,7 3,7 37 20 36 19 - 1034,4 10
20.04.2017 15:00:00 8,6 3,6 37 20 36 19 - 1034,9 10
20.04.2017 14:00:00 8,6 3,7 34 18 32 18 - 1035,1 10
20.04.2017 13:00:00 8,4 2,7 34 18 32 18 - 1035,6 10
20.04.2017 12:00:00 8,3 2,9 31 17 29 16 - 1036,0 10
20.04.2017 11:00:00 8,0 2,1 26 14 25 14 - 1035,9 10
20.04.2017 10:00:00 7,8 1,2 24 13 25 14 - 1036,3 10
20.04.2017 09:00:00 7,7 1,3 24 13 25 14 - 1036,2 10
20.04.2017 08:00:00 7,4 -0,3 22 12 25 14 - 1036,1 10
20.04.2017 07:00:00 7,2 0,5 22 12 25 14 - 1036,2 10
20.04.2017 06:00:00 7,0 0,2 22 12 25 14 - 1036,3 10

tt = temperatuur
td = dauwpunt
ff = windsnelheid
fx = windstoten
dd = windrichting
ppp = luchtdruk
vv = zicht

Weerstations in de omgeving